Home   Weather   Islamabad   Past weeks

Flag for Pakistan Past Weather in Islamabad, Pakistan — Yesterday and Last 2 Weeks

Now
95 °F

Haze.


Feels Like: 98 °F
Forecast: 74 / 96 °F
Wind: 12 mph from West

Location: Islamabad Airport

Current Time: Sep 30, 2016 at 6:34:17 PM

Latest Report: Sep 30, 2016 at 3:00 PM


Visibility: 2 mi

Pressure: 29.74 "Hg (27.97 "Hg at 554m altitude)

Humidity: 39%

Dew Point: 66 °F

Location of IslamabadLocation

Past Weather in Islamabad — Graph

°F

Islamabad Temperature Yesterday

Maximum temperature yesterday: 95 °F (at 3:00 PM)
Minimum temperature yesterday: 77 °F (at 2:00 AM)
Average temperature yesterday: 85 °F

High & Low Weather Summary for the Past Weeks

 TemperatureHumidityPressure
High97 °F (Sep 18, 3:00 PM)100% (Sep 21, 9:00 AM)29.92 "Hg (Sep 21, 9:00 AM)
Low73 °F (Sep 21, 9:00 AM)39% (Sep 18, 3:00 PM)29.65 "Hg (Sep 19, 6:00 PM)
Average85 °F64%29.77 "Hg
* Reported Sep 15 3:00 PM — Sep 30 3:00 PM, Islamabad, Weather by CustomWeather, © 2016

Note: Actual official high and low records may vary slightly from our data, if they occured in-between our weather recording intervals... More about our weather records

Advertising

Islamabad Weather History for the Previous 24 Hours

Scroll right to see more
 ConditionsComfort  
Time TempWeatherWind HumidityBarometerVisibility
3:00 PM
Fri, Sep 30
95 °FHaze.12 mph39%29.74 "Hg2 mi
2:30 PM95 °FHaze.12 mph47%29.77 "Hg2 mi
2:00 PM95 °FHaze.7 mph47%29.77 "Hg2 mi
1:30 PM93 °FHaze.5 mph49%29.77 "Hg2 mi
1:00 PM93 °FHaze.5 mph49%29.80 "Hg2 mi
12:30 PM91 °FHaze.5 mph52%29.83 "Hg2 mi
12:00 PM91 °FHaze.5 mph52%29.83 "Hg2 mi
11:30 AM90 °FHaze.5 mph59%29.86 "Hg2 mi
11:00 AM90 °FHaze.5 mph59%29.86 "Hg2 mi
10:30 AM86 °FHaze.5 mph62%29.86 "Hg2 mi
9:55 AM86 °FHaze.5 mph62%29.86 "Hg2 mi
9:30 AM82 °FHaze.7 mph66%29.86 "Hg2 mi
9:00 AM82 °FScattered clouds.7 mph66%29.86 "Hg2 mi
8:30 AM79 °FScattered clouds.9 mph74%29.86 "Hg2 mi
8:00 AM79 °FFog.9 mph74%29.86 "Hg1 mi
7:30 AM77 °FFog.9 mph83%29.83 "Hg1 mi
6:30 AM77 °FFog.9 mph83%29.80 "Hg1 mi
5:00 AM77 °FFog.5 mph83%29.80 "Hg2 mi
4:30 AM79 °FFog.5 mph79%29.77 "Hg2 mi
4:00 AM79 °FFog.5 mph79%29.77 "Hg2 mi
3:30 AM79 °FHaze.5 mph79%29.77 "Hg2 mi
3:00 AM79 °FHaze.5 mph79%29.77 "Hg2 mi
2:30 AM81 °FHaze.5 mph74%29.77 "Hg2 mi
2:00 AM81 °FHaze.5 mph74%29.77 "Hg2 mi
1:30 AM81 °FHaze.5 mph79%29.77 "Hg2 mi
1:00 AM81 °FHaze.5 mph79%29.77 "Hg2 mi
12:30 AM81 °FHaze.5 mph79%29.77 "Hg2 mi
12:00 AM81 °FHaze.5 mph79%29.77 "Hg2 mi
11:30 PM
Thu, Sep 29
82 °FHaze.7 mph74%29.77 "Hg2 mi
11:00 PM82 °FHaze.7 mph74%29.77 "Hg2 mi
10:30 PM84 °FHaze.9 mph70%29.77 "Hg2 mi
9:00 PM86 °FHaze.9 mph70%29.77 "Hg2 mi
8:00 PM86 °FHaze.7 mph66%29.77 "Hg2 mi
7:30 PM88 °FHaze.7 mph62%29.74 "Hg2 mi
7:00 PM88 °FHaze.7 mph62%29.74 "Hg2 mi
Weather by CustomWeather, © 2016

See weather overviewHow to use our weather pages